FW3803 Weather Reports


Display with metric or nautical units.
time (UTC)temp
F
wind
direction
speed
MPH
gust
MPH
rain 1hr
in
rain 24hr
in
rain mn
in
humidity
%
barometer
mb
20260504003016 52 0.0 0.0 0.00 0.00 0.00 62 1026.2
20260504002516 52 0.0 0.0 0.00 0.00 0.00 61 1026.1
20260504002036 53 0.0 0.0 0.00 0.00 0.00 59 1026.0
20260504001536 53 0.0 0.0 0.00 0.00 0.00 58 1026.0
20260504001016 54 0.0 0.0 0.00 0.00 0.00 57 1026.0
20260504000516 54 0.0 0.0 0.00 0.00 0.00 56 1026.0
20260504000016 54 0.0 0.0 0.00 0.00 0.00 54 1025.9
20260503235516 55 0.0 0.0 0.00 0.00 0.00 53 1025.9
20260503235016 55 0.0 0.0 0.00 0.00 0.00 52 1025.8
20260503234516 56 0.0 0.0 0.00 0.00 0.00 50 1025.7
20260503234016 56 0.0 0.0 0.00 0.00 0.00 48 1025.7
20260503233516 56 0.0 0.0 0.00 0.00 0.00 47 1025.6
20260503233036 57 0.0 0.0 0.00 0.00 0.00 46 1025.7
20260503232516 57 0.0 0.0 0.00 0.00 0.00 45 1025.7
20260503232036 57 0.0 0.0 0.00 0.00 0.00 44 1025.8
20260503231516 58 0.0 0.0 0.00 0.00 0.00 44 1025.7
20260503231016 58 0.0 0.0 0.00 0.00 0.00 45 1025.7
20260503230516 58 0.0 0.0 0.00 0.00 0.00 45 1025.6
20260503230016 58 0.0 0.0 0.00 0.00 0.00 43 1025.7
20260503225516 59 0.0 0.0 0.00 0.00 0.00 42 1025.7
20260503225016 59 0.0 0.0 0.00 0.00 0.00 41 1025.7
20260503224516 59 0.0 1.0 0.00 0.00 0.00 42 1025.7
20260503224016 59 0.0 1.0 0.00 0.00 0.00 41 1025.7
20260503223516 59 0.0 1.0 0.00 0.00 0.00 42 1025.7
20260503223056 60 0.0 0.0 0.00 0.00 0.00 44 1025.8
20260503222516 60 0.0 1.0 0.00 0.00 0.00 44 1025.8
20260503222016 60 0.0 0.0 0.00 0.00 0.00 43 1025.8
20260503221516 60 0.0 1.0 0.00 0.00 0.00 41 1025.8
20260503221016 61 0.0 2.0 0.00 0.00 0.00 38 1025.8
20260503220516 61 0.0 1.0 0.00 0.00 0.00 37 1025.9
20260503220016 61 0.0 0.0 0.00 0.00 0.00 37 1025.9
20260503215516 61 0.0 0.0 0.00 0.00 0.00 37 1026.0
20260503215036 61 0.0 0.0 0.00 0.00 0.00 36 1026.0
20260503214516 61 0.0 2.0 0.00 0.00 0.00 36 1025.9
20260503214016 61 0.0 1.0 0.00 0.00 0.00 35 1026.0
20260503213536 61 0.0 3.0 0.00 0.00 0.00 39 1026.0
20260503213016 61 0.0 1.0 0.00 0.00 0.00 37 1026.0
20260503212536 61 0.0 2.0 0.00 0.00 0.00 38 1025.9
20260503212036 61 135 1.0 3.0 0.00 0.00 0.00 37 1026.0
20260503211516 61 0.0 2.0 0.00 0.00 0.00 36 1026.0
20260503211016 61 0.0 2.0 0.00 0.00 0.00 35 1026.0
20260503210516 61 0.0 1.0 0.00 0.00 0.00 36 1026.0
20260503210016 61 0.0 2.0 0.00 0.00 0.00 37 1026.0
20260503205556 61 0.0 1.0 0.00 0.00 0.00 35 1025.9
20260503205016 61 0.0 1.0 0.00 0.00 0.00 36 1025.9
20260503204516 61 0.0 3.0 0.00 0.00 0.00 34 1025.9
20260503204016 61 315 1.0 3.0 0.00 0.00 0.00 36 1026.0
20260503203516 61 135 1.0 3.0 0.00 0.00 0.00 36 1026.0
20260503203016 61 0.0 1.0 0.00 0.00 0.00 37 1026.1
20260503202516 61 0.0 1.0 0.00 0.00 0.00 36 1026.0
20260503202056 61 0.0 2.0 0.00 0.00 0.00 37 1026.2
20260503201516 61 315 1.0 2.0 0.00 0.00 0.00 35 1026.2
20260503201016 61 0.0 2.0 0.00 0.00 0.00 35 1026.3
20260503200516 61 0.0 1.0 0.00 0.00 0.00 35 1026.4
20260503200016 61 293 1.0 2.0 0.00 0.00 0.00 36 1026.3
20260503195516 61 0.0 3.0 0.00 0.00 0.00 36 1026.4
20260503195016 61 225 1.0 2.0 0.00 0.00 0.00 35 1026.4
20260503194516 61 23 1.0 4.0 0.00 0.00 0.00 37 1026.4
20260503194016 60 135 1.0 4.0 0.00 0.00 0.00 37 1026.5
20260503193516 60 315 1.0 3.0 0.00 0.00 0.00 37 1026.5
20260503193017 60 293 1.0 3.0 0.00 0.00 0.00 35 1026.7
20260503192516 60 0.0 2.0 0.00 0.00 0.00 35 1026.7
20260503192056 60 0.0 2.0 0.00 0.00 0.00 35 1026.8
20260503191516 61 293 1.0 3.0 0.00 0.00 0.00 36 1027.0
20260503191016 60 23 1.0 4.0 0.00 0.00 0.00 36 1027.0
20260503190516 60 135 1.0 4.0 0.00 0.00 0.00 35 1027.1
20260503190016 60 0.0 2.0 0.00 0.00 0.00 38 1027.3
20260503185516 60 293 1.0 2.0 0.00 0.00 0.00 34 1027.3
20260503185016 60 0.0 2.0 0.00 0.00 0.00 36 1027.3
20260503184516 60 293 1.0 2.0 0.00 0.00 0.00 35 1027.5
20260503184016 60 0.0 3.0 0.00 0.00 0.00 35 1027.5
20260503183536 60 338 1.0 5.0 0.00 0.00 0.00 36 1027.5
20260503183016 60 0.0 3.0 0.00 0.00 0.00 39 1027.6
20260503182516 60 315 1.0 4.0 0.00 0.00 0.00 37 1027.6
20260503182016 60 315 1.0 2.0 0.00 0.00 0.00 38 1027.6
20260503181516 60 338 1.0 4.0 0.00 0.00 0.00 42 1027.5
20260503181036 60 0.0 2.0 0.00 0.00 0.00 39 1027.7
20260503180516 59 225 1.0 3.0 0.00 0.00 0.00 39 1027.8
20260503180036 59 0.0 2.0 0.00 0.00 0.00 37 1027.8
20260503175516 59 338 1.0 2.0 0.00 0.00 0.00 37 1027.8
20260503175016 59 293 1.0 2.0 0.00 0.00 0.00 41 1027.9
20260503174516 59 293 1.0 3.0 0.00 0.00 0.00 38 1027.9
20260503174036 59 338 1.0 2.0 0.00 0.00 0.00 39 1028.0
20260503173516 59 293 1.0 3.0 0.00 0.00 0.00 41 1028.0
20260503173016 59 293 1.0 3.0 0.00 0.00 0.00 39 1027.9
20260503172516 59 0.0 1.0 0.00 0.00 0.00 41 1027.9
20260503172036 59 135 1.0 5.0 0.00 0.00 0.00 41 1028.1
20260503171516 59 0.0 2.0 0.00 0.00 0.00 38 1028.0
20260503171036 59 0.0 2.0 0.00 0.00 0.00 41 1028.1
20260503170516 59 0 1.0 4.0 0.00 0.00 0.00 40 1028.3
20260503150516 57 0.0 2.0 0.00 0.00 0.00 40 1029.0
20260503131016 53 338 1.0 3.0 0.00 0.00 0.00 54 1028.7
20260503130536 53 0.0 2.0 0.00 0.00 0.00 58 1028.6
20260503110516 41 0.0 0.0 0.00 0.00 0.00 80 1027.2
20260503081536 48 0.0 4.0 0.00 0.00 0.00 63 1025.1
20260503081016 49 0.0 2.0 0.00 0.00 0.00 64 1025.1
20260503080516 49 0.0 1.0 0.00 0.00 0.00 63 1025.0
20260503072516 49 0.0 0.0 0.00 0.00 0.00 69 1024.7
20260503072016 49 0.0 0.0 0.00 0.00 0.00 72 1024.7
20260503071535 49 0.0 0.0 0.00 0.00 0.00 71 1024.6
20260503071015 49 0.0 0.0 0.00 0.00 0.00 72 1024.6
20260503070536 49 0.0 0.0 0.00 0.00 0.00 73 1024.5
20260503055016 49 0.0 0.0 0.00 0.00 0.00 88 1023.8
20260503054516 49 0.0 0.0 0.00 0.00 0.00 88 1023.8
20260503054015 49 0.0 0.0 0.00 0.00 0.00 88 1023.8
20260503053516 49 0.0 0.0 0.00 0.00 0.00 88 1023.9
20260503053015 49 0.0 0.0 0.00 0.00 0.00 88 1023.8
20260503052515 49 0.0 0.0 0.00 0.00 0.00 88 1023.8
20260503052016 49 0.0 0.0 0.00 0.00 0.00 87 1023.8
20260503051516 49 0.0 0.0 0.00 0.00 0.00 87 1023.9
20260503051015 49 0.0 0.0 0.00 0.00 0.00 87 1023.8
20260503050536 49 0.0 0.0 0.00 0.00 0.00 87 1023.7
20260503050015 49 0.0 0.0 0.00 0.00 0.00 87 1023.7
20260503045516 49 0.0 0.0 0.00 0.00 0.00 87 1023.8
20260503045015 49 0.0 0.0 0.00 0.00 0.00 87 1023.8
20260503044515 49 0.0 0.0 0.00 0.00 0.00 87 1023.8
20260503044016 49 0.0 0.0 0.00 0.00 0.00 87 1023.9
20260503043516 49 0.0 0.0 0.00 0.00 0.00 87 1023.9
20260503043015 49 0.0 0.0 0.00 0.00 0.00 88 1023.9
20260503042515 49 0.0 0.0 0.00 0.00 0.00 88 1023.8
20260503042016 50 0.0 0.0 0.00 0.00 0.00 88 1023.8
20260503041536 50 0.0 0.0 0.00 0.00 0.00 88 1023.7
20260503041015 50 0.0 0.0 0.00 0.00 0.00 88 1023.8
20260503040515 50 0.0 0.0 0.00 0.00 0.00 88 1023.7
20260503040015 50 0.0 0.0 0.00 0.00 0.00 88 1023.7
20260503035516 50 0.0 0.0 0.00 0.00 0.00 88 1023.7
20260503035016 50 0.0 0.0 0.00 0.00 0.00 88 1023.6
20260503034516 50 0.0 0.0 0.00 0.00 0.00 88 1023.6
20260503034016 50 0.0 0.0 0.00 0.00 0.00 88 1023.7
20260503033536 50 0.0 0.0 0.00 0.00 0.00 88 1023.7
20260503033016 50 0.0 0.0 0.00 0.00 0.00 88 1023.7
20260503032536 50 0.0 0.0 0.00 0.00 0.00 87 1023.7
20260503032016 50 0.0 0.0 0.00 0.00 0.00 87 1023.6
20260503031516 50 0.0 0.0 0.00 0.00 0.00 87 1023.7
20260503031016 50 0.0 0.0 0.00 0.00 0.00 87 1023.6
20260503030536 50 0.0 0.0 0.00 0.00 0.00 87 1023.7
20260503030016 50 0.0 0.0 0.00 0.00 0.00 87 1023.8
20260503025516 50 0.0 0.0 0.00 0.00 0.00 87 1023.9
20260503025036 50 0.0 0.0 0.00 0.00 0.00 87 1023.9
20260503024516 50 0.0 0.0 0.00 0.00 0.00 86 1023.8
20260503024016 50 0.0 0.0 0.00 0.00 0.00 87 1023.8
20260503023516 50 0.0 0.0 0.00 0.00 0.00 86 1023.7
20260503023016 50 0.0 0.0 0.00 0.00 0.00 86 1023.7
20260503022516 50 0.0 0.0 0.00 0.00 0.00 86 1023.7
20260503022016 50 0.0 0.0 0.00 0.00 0.00 85 1023.8
20260503021516 50 0.0 0.0 0.00 0.00 0.00 84 1023.7
20260503021016 50 0.0 0.0 0.00 0.00 0.00 84 1023.7
20260503020516 50 0.0 0.0 0.00 0.00 0.00 84 1023.7
20260503020016 50 0.0 0.0 0.00 0.00 0.00 84 1023.6
20260503015516 50 0.0 0.0 0.00 0.00 0.00 84 1023.6
20260503015016 50 0.0 0.0 0.00 0.00 0.00 84 1023.7
20260503014516 50 0.0 0.0 0.00 0.00 0.00 83 1023.6
20260503014036 50 0.0 0.0 0.00 0.00 0.00 83 1023.6
20260503013517 50 0.0 0.0 0.00 0.00 0.00 82 1023.6
20260503013056 51 0.0 0.0 0.00 0.00 0.00 82 1023.3
20260503012516 51 0.0 0.0 0.00 0.00 0.00 81 1023.2
20260503012016 51 0.0 0.0 0.00 0.00 0.00 81 1023.1
20260503011536 51 0.0 0.0 0.00 0.00 0.00 80 1022.9
20260503011016 51 0.0 0.0 0.00 0.00 0.00 80 1022.8
20260503010516 51 0.0 0.0 0.00 0.00 0.00 80 1022.9
20260503010016 51 0.0 0.0 0.00 0.00 0.00 80 1022.8
20260503005516 51 0.0 0.0 0.00 0.00 0.00 79 1022.9
20260503005016 51 0.0 0.0 0.00 0.00 0.00 78 1022.8
20260503004516 51 0.0 0.0 0.00 0.00 0.00 77 1022.8
20260503004016 52 0.0 0.0 0.00 0.00 0.00 77 1022.7
20260503003516 52 0.0 0.0 0.00 0.00 0.00 76 1022.6